"read_dt","SO2 (ppb)","flags","PMT voltage (V)","lamp voltage (V)","lamp intensity (Hz)","internal temp (C)","react chamber temp (C)","sample flow (l/min)","pres (mmHg)","SO2 bkg (ppb)","SO2 coefficient"
2016-03-16 00:00:00,1912E-3,5C000400,-0724,0835,12261,022.7,045.3,0.264,756.5,01.16,0.508
2016-03-16 00:01:00,1901E-3,5C000400,-0724,0835,11973,022.7,045.3,0.265,756.5,01.16,0.508
2016-03-16 00:02:00,1843E-3,5C000400,-0724,0835,12263,022.7,045.3,0.265,756.4,01.16,0.508
2016-03-16 00:03:00,1917E-3,5C000400,-0724,0834,12058,022.7,045.3,0.264,756.5,01.16,0.508
2016-03-16 00:04:00,1835E-3,5C000400,-0724,0835,12196,022.7,045.3,0.265,756.4,01.16,0.508
2016-03-16 00:05:00,1906E-3,5C000400,-0724,0834,12168,022.7,045.3,0.264,756.4,01.16,0.508
2016-03-16 00:06:00,1868E-3,5C000400,-0724,0835,11992,022.7,045.3,0.265,756.4,01.16,0.508
2016-03-16 00:07:00,1873E-3,5C000400,-0724,0836,12153,022.7,045.3,0.264,756.4,01.16,0.508
2016-03-16 00:08:00,1937E-3,5C000400,-0724,0836,12133,022.7,045.3,0.265,756.4,01.16,0.508
2016-03-16 00:09:00,1938E-3,5C000400,-0724,0835,11981,022.7,045.3,0.264,756.4,01.16,0.508
2016-03-16 00:10:00,1875E-3,5C000400,-0724,0835,12055,022.8,045.3,0.265,756.4,01.16,0.508
2016-03-16 00:11:00,1842E-3,5C000400,-0724,0835,12217,022.7,045.3,0.264,756.4,01.16,0.508
2016-03-16 00:12:00,1909E-3,5C000400,-0724,0835,12060,022.8,045.3,0.265,756.4,01.16,0.508
2016-03-16 00:13:00,2006E-3,5C000400,-0724,0835,12182,022.8,045.3,0.265,756.4,01.16,0.508
2016-03-16 00:14:00,2030E-3,5C000400,-0724,0835,12169,022.8,045.3,0.264,756.3,01.16,0.508
2016-03-16 00:15:00,1850E-3,5C000400,-0724,0835,12180,022.8,045.3,0.264,756.3,01.16,0.508
2016-03-16 00:16:00,1912E-3,5C000400,-0724,0834,12129,022.8,045.3,0.265,756.3,01.16,0.508
2016-03-16 00:17:00,1880E-3,5C000400,-0724,0835,12115,022.8,045.3,0.265,756.3,01.16,0.508
2016-03-16 00:18:00,1868E-3,5C000400,-0724,0836,12101,022.8,045.3,0.264,756.3,01.16,0.508
2016-03-16 00:19:00,1932E-3,5C000400,-0724,0834,12144,022.8,045.3,0.264,756.3,01.16,0.508
2016-03-16 00:20:00,1841E-3,5C000400,-0724,0835,12142,022.7,045.3,0.265,756.3,01.16,0.508
2016-03-16 00:21:00,1842E-3,5C000400,-0724,0834,12074,022.8,045.3,0.265,756.3,01.16,0.508
2016-03-16 00:22:00,1749E-3,5C000400,-0724,0835,12182,022.8,045.3,0.264,756.2,01.16,0.508
2016-03-16 00:23:00,1790E-3,5C000400,-0724,0835,12143,022.8,045.3,0.265,756.2,01.16,0.508
2016-03-16 00:24:00,1922E-3,5C000400,-0724,0836,12178,022.8,045.3,0.265,756.2,01.16,0.508
2016-03-16 00:25:00,1909E-3,5C000400,-0724,0835,12110,022.8,045.3,0.264,756.2,01.16,0.508
2016-03-16 00:26:00,1932E-3,5C000400,-0724,0835,12040,022.8,045.3,0.264,756.2,01.16,0.508
2016-03-16 00:27:00,1883E-3,5C000400,-0724,0835,11995,022.8,045.3,0.264,756.2,01.16,0.508
2016-03-16 00:28:00,1965E-3,5C000400,-0724,0836,12214,022.8,045.3,0.265,756.2,01.16,0.508
2016-03-16 00:29:00,1824E-3,5C000400,-0724,0835,12067,022.8,045.3,0.264,756.2,01.16,0.508
2016-03-16 00:30:00,1664E-3,5C000400,-0724,0835,12166,022.8,045.3,0.264,756.2,01.16,0.508
2016-03-16 00:31:00,1794E-3,5C000400,-0724,0835,12004,022.8,045.3,0.265,756.2,01.16,0.508
2016-03-16 00:32:00,1771E-3,5C000400,-0724,0835,12243,022.8,045.3,0.264,756.2,01.16,0.508
2016-03-16 00:33:00,1855E-3,5C000400,-0724,0835,12157,022.8,045.3,0.264,756.2,01.16,0.508
2016-03-16 00:34:00,2005E-3,5C000400,-0724,0835,11932,022.8,045.3,0.264,756.2,01.16,0.508
2016-03-16 00:35:00,1962E-3,5C000400,-0724,0835,12141,022.8,045.3,0.264,756.2,01.16,0.508
2016-03-16 00:36:00,1920E-3,5C000400,-0724,0835,12231,022.8,045.3,0.264,756.2,01.16,0.508
2016-03-16 00:37:00,1875E-3,5C000400,-0724,0835,12059,022.9,045.3,0.265,756.2,01.16,0.508
2016-03-16 00:38:00,1885E-3,5C000400,-0724,0835,12229,022.8,045.3,0.264,756.2,01.16,0.508
2016-03-16 00:39:00,1951E-3,5C000400,-0724,0835,12127,022.8,045.3,0.264,756.2,01.16,0.508
2016-03-16 00:40:00,2015E-3,5C000400,-0724,0835,12164,022.8,045.3,0.265,756.2,01.16,0.508
2016-03-16 00:41:00,1895E-3,5C000400,-0724,0835,12080,022.9,045.3,0.264,756.2,01.16,0.508
2016-03-16 00:42:00,1863E-3,5C000400,-0724,0835,12197,022.9,045.3,0.265,756.1,01.16,0.508
2016-03-16 00:43:00,1847E-3,5C000400,-0724,0835,12278,022.9,045.3,0.264,756.1,01.16,0.508
2016-03-16 00:44:00,1847E-3,5C000400,-0724,0835,12144,022.9,045.3,0.265,756.1,01.16,0.508
2016-03-16 00:45:00,1965E-3,5C000400,-0724,0835,12066,022.9,045.3,0.264,756.1,01.16,0.508
2016-03-16 00:46:00,1848E-3,5C000400,-0724,0834,12130,022.9,045.3,0.264,756.1,01.16,0.508
2016-03-16 00:47:00,1931E-3,5C000400,-0724,0834,12103,022.9,045.3,0.264,756.1,01.16,0.508
2016-03-16 00:48:00,1816E-3,5C000400,-0724,0834,12204,022.9,045.3,0.264,756.1,01.16,0.508
2016-03-16 00:49:00,1737E-3,5C000400,-0724,0834,12175,022.9,045.3,0.264,756.1,01.16,0.508
2016-03-16 00:50:00,1917E-3,5C000400,-0724,0835,12143,022.9,045.3,0.264,756.1,01.16,0.508
2016-03-16 00:51:00,1872E-3,5C000400,-0724,0835,12179,022.9,045.3,0.264,756.2,01.16,0.508
2016-03-16 00:52:00,1961E-3,5C000400,-0724,0835,12129,022.9,045.3,0.264,756.2,01.16,0.508
2016-03-16 00:53:00,1959E-3,5C000400,-0724,0835,12089,022.9,045.3,0.264,756.1,01.16,0.508
2016-03-16 00:54:00,1971E-3,5C000400,-0724,0835,12124,022.9,045.3,0.264,756.1,01.16,0.508
2016-03-16 00:55:00,1842E-3,5C000400,-0724,0835,12275,022.9,045.3,0.264,756.1,01.16,0.508
2016-03-16 00:56:00,1895E-3,5C000400,-0724,0836,12167,022.9,045.3,0.264,756.1,01.16,0.508
2016-03-16 00:57:00,1790E-3,5C000400,-0724,0835,12183,022.9,045.3,0.264,756.1,01.16,0.508
2016-03-16 00:58:00,1948E-3,5C000400,-0724,0834,12115,022.9,045.3,0.264,756.1,01.16,0.508
2016-03-16 00:59:00,2016E-3,5C000400,-0724,0835,12107,023.0,045.3,0.264,756.2,01.16,0.508
2016-03-16 01:00:00,1838E-3,5C000400,-0724,0835,12261,022.9,045.3,0.264,756.1,01.16,0.508
2016-03-16 01:01:00,1866E-3,5C000400,-0724,0835,11841,023.0,045.3,0.264,756.2,01.16,0.508
2016-03-16 01:02:00,1847E-3,5C000400,-0724,0836,12112,023.0,045.3,0.264,756.1,01.16,0.508
2016-03-16 01:03:00,1890E-3,5C000400,-0724,0835,12174,023.0,045.3,0.264,756.2,01.16,0.508
2016-03-16 01:04:00,1950E-3,5C000400,-0724,0835,12176,023.0,045.3,0.264,756.2,01.16,0.508
2016-03-16 01:05:00,1782E-3,5C000400,-0724,0835,12160,023.0,045.3,0.264,756.2,01.16,0.508
2016-03-16 01:06:00,1930E-3,5C000400,-0724,0835,12222,023.0,045.3,0.264,756.1,01.16,0.508
2016-03-16 01:07:00,2003E-3,5C000400,-0724,0835,12153,023.0,045.3,0.264,756.2,01.16,0.508
2016-03-16 01:08:00,1921E-3,5C000400,-0724,0835,12115,023.0,045.3,0.264,756.2,01.16,0.508
2016-03-16 01:09:00,1942E-3,5C000400,-0724,0835,11967,023.0,045.3,0.264,756.2,01.16,0.508
2016-03-16 01:10:00,1835E-3,5C000400,-0724,0835,12178,023.0,045.3,0.264,756.2,01.16,0.508
2016-03-16 01:11:00,1843E-3,5C000400,-0724,0835,12182,023.0,045.3,0.264,756.1,01.16,0.508
2016-03-16 01:12:00,1829E-3,5C000400,-0724,0836,12206,023.0,045.3,0.264,756.1,01.16,0.508
2016-03-16 01:13:00,1848E-3,5C000400,-0724,0835,12177,023.0,045.3,0.264,756.1,01.16,0.508
2016-03-16 01:14:00,2038E-3,5C000400,-0724,0835,12310,023.0,045.3,0.264,756.1,01.16,0.508
2016-03-16 01:15:00,1870E-3,5C000400,-0724,0835,12202,023.0,045.3,0.264,756.1,01.16,0.508
2016-03-16 01:16:00,1993E-3,5C000400,-0724,0835,12267,023.0,045.3,0.264,756.1,01.16,0.508
2016-03-16 01:17:00,1915E-3,5C000400,-0724,0836,12167,023.0,045.3,0.264,756.1,01.16,0.508
2016-03-16 01:18:00,1884E-3,5C000400,-0724,0835,12198,023.0,045.3,0.264,756.1,01.16,0.508
2016-03-16 01:19:00,1915E-3,5C000400,-0724,0835,12171,023.1,045.3,0.264,756.1,01.16,0.508
2016-03-16 01:20:00,2073E-3,5C000400,-0724,0835,12152,023.1,045.3,0.264,756.1,01.16,0.508
2016-03-16 01:21:00,1819E-3,5C000400,-0724,0835,12096,023.1,045.3,0.264,756.1,01.16,0.508
2016-03-16 01:22:00,1875E-3,5C000400,-0724,0834,11945,023.1,045.3,0.264,756.1,01.16,0.508
2016-03-16 01:23:00,1739E-3,5C000400,-0724,0835,12270,023.1,045.3,0.264,756.1,01.16,0.508
2016-03-16 01:24:00,1896E-3,5C000400,-0724,0834,12103,023.1,045.3,0.264,756.2,01.16,0.508
2016-03-16 01:25:00,1837E-3,5C000400,-0724,0835,12168,023.1,045.3,0.264,756.2,01.16,0.508
2016-03-16 01:26:00,1788E-3,5C000400,-0724,0835,12055,023.1,045.3,0.264,756.2,01.16,0.508
2016-03-16 01:27:00,1913E-3,5C000400,-0724,0835,12098,023.1,045.3,0.264,756.2,01.16,0.508
2016-03-16 01:28:00,1861E-3,5C000400,-0724,0835,12177,023.1,045.3,0.264,756.2,01.16,0.508
2016-03-16 01:29:00,1777E-3,5C000400,-0724,0835,12143,023.1,045.3,0.264,756.2,01.16,0.508
2016-03-16 01:30:00,1804E-3,5C000400,-0724,0835,12181,023.1,045.3,0.264,756.2,01.16,0.508
2016-03-16 01:31:00,1921E-3,5C000400,-0724,0835,12114,023.1,045.3,0.264,756.2,01.16,0.508
2016-03-16 01:32:00,1965E-3,5C000400,-0724,0836,12225,023.2,045.3,0.263,756.1,01.16,0.508
2016-03-16 01:33:00,1625E-3,5C000400,-0724,0835,12257,023.1,045.3,0.264,756.1,01.16,0.508
2016-03-16 01:34:00,1871E-3,5C000400,-0724,0835,11999,023.1,045.3,0.264,756.1,01.16,0.508
2016-03-16 01:35:00,1792E-3,5C000400,-0724,0835,12031,023.2,045.3,0.264,756.1,01.16,0.508
2016-03-16 01:36:00,1966E-3,5C000400,-0724,0834,12019,023.2,045.3,0.263,756.1,01.16,0.508
2016-03-16 01:37:00,1871E-3,5C000400,-0724,0835,12089,023.2,045.3,0.264,756.1,01.16,0.508
2016-03-16 01:38:00,1917E-3,5C000400,-0724,0835,12293,023.2,045.3,0.264,756.2,01.16,0.508
2016-03-16 01:39:00,1831E-3,5C000400,-0724,0835,12011,023.2,045.3,0.264,756.1,01.16,0.508
2016-03-16 01:40:00,1837E-3,5C000400,-0724,0835,12189,023.2,045.3,0.264,756.1,01.16,0.508
2016-03-16 01:41:00,1931E-3,5C000400,-0724,0834,12041,023.2,045.3,0.264,756.1,01.16,0.508
2016-03-16 01:42:00,1956E-3,5C000400,-0724,0835,12131,023.2,045.3,0.264,756.1,01.16,0.508
2016-03-16 01:43:00,1817E-3,5C000400,-0724,0835,12107,023.2,045.3,0.264,756.0,01.16,0.508
2016-03-16 01:44:00,1784E-3,5C000400,-0724,0834,12065,023.2,045.3,0.264,756.0,01.16,0.508
2016-03-16 01:45:00,1722E-3,5C000400,-0724,0835,12099,023.2,045.3,0.264,756.0,01.16,0.508
2016-03-16 01:46:00,1841E-3,5C000400,-0724,0835,12246,023.2,045.3,0.264,756.0,01.16,0.508
2016-03-16 01:47:00,1931E-3,5C000400,-0724,0835,12251,023.3,045.3,0.263,756.1,01.16,0.508
2016-03-16 01:48:00,1940E-3,5C000400,-0724,0835,12083,023.3,045.3,0.264,756.0,01.16,0.508
2016-03-16 01:49:00,1814E-3,5C000400,-0724,0836,12204,023.3,045.3,0.264,756.0,01.16,0.508
2016-03-16 01:50:00,1804E-3,5C000400,-0724,0835,12085,023.3,045.3,0.263,756.0,01.16,0.508
2016-03-16 01:51:00,1990E-3,5C000400,-0724,0835,12115,023.3,045.3,0.264,755.9,01.16,0.508
2016-03-16 01:52:00,1799E-3,5C000400,-0724,0834,12062,023.2,045.3,0.264,755.9,01.16,0.508
2016-03-16 01:53:00,1853E-3,5C000400,-0724,0835,12113,023.3,045.3,0.264,755.9,01.16,0.508
2016-03-16 01:54:00,1849E-3,5C000400,-0724,0836,12181,023.3,045.3,0.264,755.9,01.16,0.508
2016-03-16 01:55:00,1805E-3,5C000400,-0724,0834,12069,023.3,045.3,0.264,755.9,01.16,0.508
2016-03-16 01:56:00,1867E-3,5C000400,-0724,0835,12296,023.3,045.3,0.264,755.9,01.16,0.508
2016-03-16 01:57:00,1796E-3,5C000400,-0724,0836,12254,023.3,045.3,0.264,755.9,01.16,0.508
2016-03-16 01:58:00,1882E-3,5C000400,-0724,0835,11992,023.3,045.3,0.264,755.9,01.16,0.508
2016-03-16 01:59:00,1911E-3,5C000400,-0724,0835,12200,023.3,045.3,0.264,755.9,01.16,0.508
2016-03-16 02:00:00,1887E-3,5C000400,-0724,0834,12056,023.3,045.3,0.263,755.9,01.16,0.508
2016-03-16 02:01:00,1906E-3,5C000400,-0724,0834,12222,023.3,045.3,0.264,755.9,01.16,0.508
2016-03-16 02:02:00,1827E-3,5C000400,-0724,0835,12131,023.3,045.3,0.263,755.8,01.16,0.508
2016-03-16 02:03:00,1896E-3,5C000400,-0724,0835,12207,023.3,045.3,0.263,755.9,01.16,0.508
2016-03-16 02:04:00,1903E-3,5C000400,-0724,0835,12201,023.4,045.3,0.264,755.9,01.16,0.508
2016-03-16 02:05:00,2020E-3,5C000400,-0724,0835,11955,023.4,045.3,0.263,755.9,01.16,0.508
2016-03-16 02:06:00,1809E-3,5C000400,-0724,0835,12104,023.4,045.3,0.263,755.9,01.16,0.508
2016-03-16 02:07:00,1893E-3,5C000400,-0724,0835,12117,023.4,045.3,0.263,755.9,01.16,0.508
2016-03-16 02:08:00,1902E-3,5C000400,-0724,0835,12149,023.4,045.3,0.264,755.9,01.16,0.508
2016-03-16 02:09:00,1922E-3,5C000400,-0724,0835,12147,023.4,045.3,0.263,755.9,01.16,0.508
2016-03-16 02:10:00,1784E-3,5C000400,-0724,0835,12173,023.4,045.3,0.263,755.9,01.16,0.508
2016-03-16 02:11:00,1837E-3,5C000400,-0724,0835,12076,023.4,045.3,0.263,755.9,01.16,0.508
2016-03-16 02:12:00,1993E-3,5C000400,-0724,0835,12193,023.4,045.3,0.264,755.9,01.16,0.508
2016-03-16 02:13:00,1831E-3,5C000400,-0724,0835,12063,023.5,045.3,0.263,755.9,01.16,0.508
2016-03-16 02:14:00,2039E-3,5C000400,-0724,0835,12147,023.4,045.3,0.263,755.9,01.16,0.508
2016-03-16 02:15:00,1880E-3,5C000400,-0724,0835,12162,023.5,045.3,0.264,755.9,01.16,0.508
2016-03-16 02:16:00,1879E-3,5C000400,-0724,0835,12280,023.5,045.3,0.263,755.9,01.16,0.508
2016-03-16 02:17:00,1775E-3,5C000400,-0724,0836,12171,023.5,045.3,0.263,755.9,01.16,0.508
2016-03-16 02:18:00,1827E-3,5C000400,-0724,0836,12175,023.5,045.3,0.264,755.9,01.16,0.508
2016-03-16 02:19:00,1964E-3,5C000400,-0724,0835,12127,023.5,045.3,0.263,755.9,01.16,0.508
2016-03-16 02:20:00,1944E-3,5C000400,-0724,0835,12122,023.5,045.3,0.263,755.9,01.16,0.508
2016-03-16 02:21:00,1854E-3,5C000400,-0724,0835,12152,023.5,045.3,0.263,755.9,01.16,0.508
2016-03-16 02:22:00,1992E-3,5C000400,-0724,0834,12209,023.5,045.3,0.263,755.9,01.16,0.508
2016-03-16 02:23:00,2007E-3,5C000400,-0724,0835,12133,023.5,045.3,0.263,755.9,01.16,0.508
2016-03-16 02:24:00,1955E-3,5C000400,-0724,0835,12256,023.5,045.3,0.263,755.9,01.16,0.508
2016-03-16 02:25:00,1793E-3,5C000400,-0724,0835,12128,023.5,045.3,0.263,755.9,01.16,0.508
2016-03-16 02:26:00,1978E-3,5C000400,-0724,0835,11959,023.5,045.3,0.263,755.9,01.16,0.508
2016-03-16 02:27:00,1912E-3,5C000400,-0724,0836,12104,023.5,045.3,0.263,755.9,01.16,0.508
2016-03-16 02:28:00,1817E-3,5C000400,-0724,0834,12190,023.6,045.3,0.263,755.9,01.16,0.508
2016-03-16 02:29:00,1867E-3,5C000400,-0724,0836,12230,023.5,045.3,0.263,755.9,01.16,0.508
2016-03-16 02:30:00,1839E-3,5C000400,-0724,0836,12143,023.6,045.3,0.263,755.9,01.16,0.508
2016-03-16 02:31:00,1932E-3,5C000400,-0724,0835,12092,023.6,045.3,0.263,755.9,01.16,0.508
2016-03-16 02:32:00,1886E-3,5C000400,-0724,0836,12133,023.6,045.3,0.263,755.9,01.16,0.508
2016-03-16 02:33:00,1798E-3,5C000400,-0724,0835,12175,023.6,045.3,0.263,755.9,01.16,0.508
2016-03-16 02:34:00,1878E-3,5C000400,-0724,0836,12245,023.6,045.3,0.263,755.9,01.16,0.508
2016-03-16 02:35:00,1844E-3,5C000400,-0724,0836,12033,023.6,045.3,0.263,755.8,01.16,0.508
2016-03-16 02:36:00,1752E-3,5C000400,-0724,0836,12069,023.6,045.3,0.263,755.8,01.16,0.508
2016-03-16 02:37:00,1779E-3,5C000400,-0724,0835,12254,023.6,045.3,0.263,755.9,01.16,0.508
2016-03-16 02:38:00,1941E-3,5C000400,-0724,0835,12184,023.6,045.3,0.263,755.8,01.16,0.508
2016-03-16 02:39:00,1786E-3,5C000400,-0724,0835,11974,023.6,045.3,0.263,755.9,01.16,0.508
2016-03-16 02:40:00,1959E-3,5C000400,-0724,0835,12162,023.6,045.3,0.263,755.9,01.16,0.508
2016-03-16 02:41:00,1751E-3,5C000400,-0724,0835,12108,023.6,045.3,0.263,755.8,01.16,0.508
2016-03-16 02:42:00,1725E-3,5C000400,-0724,0835,12201,023.7,045.3,0.263,755.8,01.16,0.508
2016-03-16 02:43:00,1784E-3,5C000400,-0724,0835,12116,023.7,045.3,0.263,755.8,01.16,0.508
2016-03-16 02:44:00,1749E-3,5C000400,-0724,0835,12166,023.7,045.3,0.263,755.8,01.16,0.508
2016-03-16 02:45:00,1775E-3,5C000400,-0724,0835,12187,023.7,045.3,0.263,755.8,01.16,0.508
2016-03-16 02:46:00,1869E-3,5C000400,-0724,0835,12173,023.7,045.3,0.263,755.9,01.16,0.508
2016-03-16 02:47:00,1813E-3,5C000400,-0724,0835,12162,023.7,045.3,0.263,755.8,01.16,0.508
2016-03-16 02:48:00,1890E-3,5C000400,-0724,0835,12114,023.7,045.3,0.263,755.8,01.16,0.508
2016-03-16 02:49:00,1877E-3,5C000400,-0724,0836,12050,023.7,045.3,0.263,755.8,01.16,0.508
2016-03-16 02:50:00,1687E-3,5C000400,-0724,0835,12190,023.7,045.3,0.263,755.8,01.16,0.508
2016-03-16 02:51:00,1909E-3,5C000400,-0724,0835,12051,023.7,045.3,0.263,755.8,01.16,0.508
2016-03-16 02:52:00,1814E-3,5C000400,-0724,0835,12151,023.7,045.3,0.263,755.8,01.16,0.508
2016-03-16 02:53:00,1858E-3,5C000400,-0724,0836,12204,023.7,045.3,0.263,755.8,01.16,0.508
2016-03-16 02:54:00,1865E-3,5C000400,-0724,0835,12061,023.7,045.3,0.263,755.8,01.16,0.508
2016-03-16 02:55:00,1875E-3,5C000400,-0724,0835,12091,023.8,045.3,0.262,755.8,01.16,0.508
2016-03-16 02:56:00,1861E-3,5C000400,-0724,0835,12215,023.8,045.3,0.263,755.8,01.16,0.508
2016-03-16 02:57:00,1879E-3,5C000400,-0724,0835,12146,023.8,045.3,0.263,755.8,01.16,0.508
2016-03-16 02:58:00,1932E-3,5C000400,-0724,0836,12147,023.8,045.3,0.262,755.8,01.16,0.508
2016-03-16 02:59:00,1849E-3,5C000400,-0724,0836,12126,023.8,045.3,0.263,755.8,01.16,0.508
2016-03-16 03:00:00,1779E-3,5C000400,-0724,0835,12120,023.8,045.3,0.263,755.8,01.16,0.508
2016-03-16 03:01:00,1806E-3,5C000400,-0724,0835,12233,023.8,045.3,0.263,755.8,01.16,0.508
2016-03-16 03:02:00,1843E-3,5C000400,-0724,0836,12240,023.8,045.3,0.262,755.7,01.16,0.508
2016-03-16 03:03:00,1779E-3,5C000400,-0724,0835,12135,023.9,045.3,0.263,755.7,01.16,0.508
2016-03-16 03:04:00,1827E-3,5C000400,-0724,0835,12189,023.9,045.3,0.263,755.7,01.16,0.508
2016-03-16 03:05:00,1831E-3,5C000400,-0724,0835,12095,023.8,045.3,0.263,755.7,01.16,0.508
2016-03-16 03:06:00,1760E-3,5C000400,-0724,0835,12044,023.9,045.3,0.263,755.7,01.16,0.508
2016-03-16 03:07:00,1739E-3,5C000400,-0724,0836,12072,023.9,045.3,0.262,755.7,01.16,0.508
2016-03-16 03:08:00,1830E-3,5C000400,-0724,0835,12218,023.9,045.3,0.263,755.7,01.16,0.508
2016-03-16 03:09:00,1883E-3,5C000400,-0724,0835,12204,023.9,045.3,0.263,755.7,01.16,0.508
2016-03-16 03:10:00,1823E-3,5C000400,-0724,0835,12071,023.9,045.3,0.263,755.7,01.16,0.508
2016-03-16 03:11:00,1869E-3,5C000400,-0724,0836,12229,023.9,045.3,0.262,755.7,01.16,0.508
2016-03-16 03:12:00,1845E-3,5C000400,-0724,0836,12170,023.9,045.3,0.263,755.7,01.16,0.508
2016-03-16 03:13:00,2004E-3,5C000400,-0724,0835,11986,024.0,045.3,0.263,755.7,01.16,0.508
2016-03-16 03:14:00,1948E-3,5C000400,-0724,0835,12282,023.9,045.3,0.262,755.7,01.16,0.508
2016-03-16 03:15:00,1796E-3,5C000400,-0724,0835,12075,024.0,045.3,0.263,755.7,01.16,0.508
2016-03-16 03:16:00,1951E-3,5C000400,-0724,0835,12145,024.0,045.3,0.263,755.7,01.16,0.508
2016-03-16 03:17:00,1905E-3,5C000400,-0724,0836,12178,024.0,045.3,0.262,755.7,01.16,0.508
2016-03-16 03:18:00,1791E-3,5C000400,-0724,0835,12014,024.0,045.3,0.263,755.7,01.16,0.508
2016-03-16 03:19:00,1914E-3,5C000400,-0724,0835,12175,024.0,045.3,0.262,755.7,01.16,0.508
2016-03-16 03:20:00,1787E-3,5C000400,-0724,0835,11937,024.0,045.3,0.263,755.7,01.16,0.508
2016-03-16 03:21:00,1936E-3,5C000400,-0724,0835,12270,024.0,045.3,0.262,755.7,01.16,0.508
2016-03-16 03:22:00,2022E-3,5C000400,-0724,0835,12081,024.0,045.3,0.263,755.7,01.16,0.508
2016-03-16 03:23:00,1922E-3,5C000400,-0724,0835,12152,024.0,045.3,0.262,755.7,01.16,0.508
2016-03-16 03:24:00,1897E-3,5C000400,-0724,0835,12216,024.1,045.3,0.262,755.7,01.16,0.508
2016-03-16 03:25:00,1725E-3,5C000400,-0724,0835,12183,024.1,045.3,0.262,755.7,01.16,0.508
2016-03-16 03:26:00,1848E-3,5C000400,-0724,0835,12199,024.1,045.3,0.262,755.7,01.16,0.508
2016-03-16 03:27:00,1910E-3,5C000400,-0724,0835,12152,024.1,045.3,0.262,755.7,01.16,0.508
2016-03-16 03:28:00,1899E-3,5C000400,-0724,0835,12226,024.1,045.3,0.262,755.7,01.16,0.508
2016-03-16 03:29:00,1819E-3,5C000400,-0724,0835,12117,024.1,045.3,0.263,755.7,01.16,0.508
2016-03-16 03:30:00,1824E-3,5C000400,-0724,0835,12087,024.1,045.3,0.262,755.7,01.16,0.508
2016-03-16 03:31:00,1835E-3,5C000400,-0724,0835,12179,024.1,045.3,0.262,755.7,01.16,0.508
2016-03-16 03:32:00,1930E-3,5C000400,-0724,0835,12076,024.1,045.3,0.262,755.7,01.16,0.508
2016-03-16 03:33:00,1836E-3,5C000400,-0724,0835,12208,024.1,045.3,0.262,755.7,01.16,0.508
2016-03-16 03:34:00,1769E-3,5C000400,-0724,0835,11938,024.1,045.3,0.262,755.7,01.16,0.508
2016-03-16 03:35:00,1929E-3,5C000400,-0724,0835,12052,024.1,045.3,0.262,755.7,01.16,0.508
2016-03-16 03:36:00,1729E-3,5C000400,-0724,0835,12138,024.1,045.3,0.262,755.7,01.16,0.508
2016-03-16 03:37:00,1815E-3,5C000400,-0724,0836,12223,024.1,045.3,0.262,755.6,01.16,0.508
2016-03-16 03:38:00,1883E-3,5C000400,-0724,0835,12108,024.2,045.3,0.262,755.6,01.16,0.508
2016-03-16 03:39:00,1900E-3,5C000400,-0724,0836,12221,024.1,045.3,0.262,755.6,01.16,0.508
2016-03-16 03:40:00,1766E-3,5C000400,-0724,0835,12126,024.2,045.3,0.262,755.6,01.16,0.508
2016-03-16 03:41:00,1868E-3,5C000400,-0724,0835,12215,024.2,045.3,0.262,755.6,01.16,0.508
2016-03-16 03:42:00,1855E-3,5C000400,-0724,0835,12125,024.2,045.3,0.262,755.5,01.16,0.508
2016-03-16 03:43:00,1774E-3,5C000400,-0724,0834,12235,024.2,045.3,0.262,755.5,01.16,0.508
2016-03-16 03:44:00,1797E-3,5C000400,-0724,0836,12275,024.2,045.3,0.262,755.5,01.16,0.508
2016-03-16 03:45:00,1881E-3,5C000400,-0724,0836,12139,024.2,045.3,0.262,755.5,01.16,0.508
2016-03-16 03:46:00,1813E-3,5C000400,-0724,0835,12166,024.2,045.3,0.262,755.6,01.16,0.508
2016-03-16 03:47:00,1958E-3,5C000400,-0724,0835,12156,024.2,045.3,0.262,755.6,01.16,0.508
2016-03-16 03:48:00,1751E-3,5C000400,-0724,0835,11973,024.3,045.3,0.262,755.6,01.16,0.508
2016-03-16 03:49:00,1756E-3,5C000400,-0724,0835,12208,024.3,045.3,0.262,755.6,01.16,0.508
2016-03-16 03:50:00,1830E-3,5C000400,-0724,0835,12110,024.3,045.3,0.262,755.6,01.16,0.508
2016-03-16 03:51:00,1971E-3,5C000400,-0724,0836,12048,024.3,045.3,0.262,755.6,01.16,0.508
2016-03-16 03:52:00,2026E-3,5C000400,-0724,0835,12113,024.3,045.3,0.262,755.6,01.16,0.508
2016-03-16 03:53:00,1887E-3,5C000400,-0724,0836,12193,024.3,045.3,0.262,755.5,01.16,0.508
2016-03-16 03:54:00,1730E-3,5C000400,-0724,0835,12021,024.3,045.3,0.262,755.5,01.16,0.508
2016-03-16 03:55:00,1824E-3,5C000400,-0724,0836,12136,024.3,045.3,0.263,756.4,01.16,0.508
2016-03-16 03:56:00,1795E-3,5C000400,-0724,0835,12025,024.4,045.3,0.262,755.7,01.16,0.508
2016-03-16 03:57:00,1729E-3,5C000400,-0724,0835,12127,024.3,045.3,0.262,755.5,01.16,0.508
2016-03-16 03:58:00,1703E-3,5C000400,-0724,0836,12113,024.4,045.3,0.262,755.5,01.16,0.508
2016-03-16 03:59:00,1895E-3,5C000400,-0724,0835,12183,024.4,045.3,0.262,755.5,01.16,0.508
2016-03-16 04:00:00,1831E-3,5C000400,-0724,0837,12223,024.4,045.3,0.262,755.5,01.16,0.508
2016-03-16 04:01:00,1770E-3,5C000400,-0724,0835,12145,024.4,045.3,0.262,755.5,01.16,0.508
2016-03-16 04:02:00,1782E-3,5C000400,-0724,0835,12102,024.4,045.3,0.261,755.5,01.16,0.508
2016-03-16 04:03:00,1780E-3,5C000400,-0724,0835,12228,024.4,045.3,0.262,755.6,01.16,0.508
2016-03-16 04:04:00,1844E-3,5C000400,-0724,0836,12213,024.4,045.3,0.262,755.6,01.16,0.508
2016-03-16 04:05:00,1845E-3,5C000400,-0724,0836,12109,024.4,045.3,0.262,755.6,01.16,0.508
2016-03-16 04:06:00,1776E-3,5C000400,-0724,0835,12190,024.4,045.3,0.261,755.6,01.16,0.508
2016-03-16 04:07:00,1891E-3,5C000400,-0724,0836,12072,024.4,045.3,0.262,755.6,01.16,0.508
2016-03-16 04:08:00,1935E-3,5C000400,-0724,0836,12188,024.5,045.3,0.262,755.6,01.16,0.508
2016-03-16 04:09:00,1799E-3,5C000400,-0724,0836,12245,024.5,045.3,0.262,755.5,01.16,0.508
2016-03-16 04:10:00,1931E-3,5C000400,-0724,0835,12020,024.5,045.3,0.262,755.5,01.16,0.508
2016-03-16 04:11:00,1970E-3,5C000400,-0724,0836,12133,024.5,045.3,0.262,755.5,01.16,0.508
2016-03-16 04:12:00,1854E-3,5C000400,-0724,0835,12179,024.5,045.3,0.261,755.5,01.16,0.508
2016-03-16 04:13:00,1882E-3,5C000400,-0724,0835,12109,024.5,045.3,0.262,755.5,01.16,0.508
2016-03-16 04:14:00,1880E-3,5C000400,-0724,0835,12105,024.5,045.3,0.262,755.5,01.16,0.508
2016-03-16 04:15:00,1965E-3,5C000400,-0724,0836,12360,024.5,045.3,0.261,755.5,01.16,0.508
2016-03-16 04:16:00,1796E-3,5C000400,-0724,0835,12182,024.5,045.3,0.262,755.5,01.16,0.508
2016-03-16 04:17:00,1945E-3,5C000400,-0724,0835,12270,024.6,045.3,0.261,755.4,01.16,0.508
2016-03-16 04:18:00,1887E-3,5C000400,-0724,0835,12212,024.6,045.3,0.261,755.5,01.16,0.508
2016-03-16 04:19:00,1801E-3,5C000400,-0724,0835,12204,024.6,045.3,0.262,755.4,01.16,0.508
2016-03-16 04:20:00,1735E-3,5C000400,-0724,0834,12287,024.6,045.3,0.261,755.4,01.16,0.508